sat.trackr.live / text

‹ back to catalog

CYGFM04

NORAD 41885 · 2016-078B

PAYLOAD INACTIVE UNKNOWN

§ Identity

Operator
Country
US
Launch date
2016-12-15
Launch site
ERAS
Launch vehicle
Mass (kg)
RCS (m²)
0.20

Purposes: earth_obs

External: N2YO · Heavens-Above · Gunter

§ Orbital elements

Epoch: 2026-05-25T01:27:12.949056Z

Period
92.30 min
Inclination
34.9340°
Eccentricity
0.0007883
Mean motion
15.60045850 rev/d
Perigee alt
382.2 km
Apogee alt
392.9 km
Semi-major
6,765.7 km
B*
3.2448e-4
RAAN
22.4216°
Arg perigee
328.3713°
Mean anomaly
31.6537°
Rev number
52,538

§ Raw data

CYGFM041 41885U 16078B   26145.06056654  .00027252  00000+0  32448-3 0  99992 41885  34.9340  22.4216 0007883 328.3713  31.6537 15.60045850525383

JSON: /api/v1/satellites/41885 · /tle

For live sub-satellite position, see the globe view (requires WebGL).

§ Visibility from observer

Set your observer location to see the next 7 days of passes ≥ 10°. The values pass through the URL so the page stays shareable.

No JS? Fill the form by hand. The geolocation button needs JavaScript.